To NAV CANADA Home Page Login to a new session Search on AWWS site Feedback and Comments Disclaimer Vers la page française équivalente Tips FAQ What's new on the site To the Forecasts and Observations / NOTAM section To "File a Flight Plan" website Publications and other links Update of the User's profile FIC Telephone Numbers My Weather Data Folder Route Weather Data Regional Weather Data Local Weather Data To the Forecasts and Observations / NOTAM section
Request Generated 04/24/2014 at 17:47:00 UTC . Weather information available at that time is displayed.

METAR/TAF

ISLAND LAKE/MB    

METAR CYIV 241700Z 08010G16KT 15SM FEW100 BKN250 03/M02 A3007 RMK AC1CI0 SLP196=
METAR CYIV 241600Z 07013G20KT 15SM FEW100 BKN250 00/M03 A3008 RMK AC2CI0 SLP200=
METAR CYIV 241500Z 08010G19KT 15SM SCT100 BKN250 M01/M04 A3009 RMK AC4CI0 SLP204=

TAF CYIV 241238Z 2413/2501 08012KT P6SM FEW012 BKN200 TEMPO 2413/2416
BKN012 OVC200
FM241600 08012G22KT P6SM BKN200
RMK NXT FCST BY 241900Z=
Your time UTC time
Weather data provided by Environment Canada and NAV CANADA